Home   Weather   Kassala   Past weeks

Flag for Sudan Past Weather in Kassala, Sudan — Yesterday and Last 2 Weeks

81 °F


Feels Like: 79 °F
Forecast: 74 / 101 °F
Wind: 15 mph from North

Location: Khartoum Airport

Current Time: Oct 28, 2016 at 5:34:09 AM

Latest Report: Oct 28, 2016 at 5:00 AM

Visibility: 10 mi

Pressure: 29.92 "Hg (28.25 "Hg at 506m altitude)

Humidity: 21%

Dew Point: 37 °F

Location of KassalaLocation

Past Weather in Kassala — Graph


Kassala Temperature Yesterday

Maximum temperature yesterday: 95 °F (at 2:30 PM)
Minimum temperature yesterday: 81 °F (at 6:00 AM)
Average temperature yesterday: 88 °F

High & Low Weather Summary for the Past Weeks

High104 °F (Oct 13, 4:00 PM)51% (Oct 15, 8:00 AM)29.95 "Hg (Oct 15, 8:00 AM)
Low81 °F (Oct 14, 6:00 AM)8% (Oct 14, 3:00 PM)29.68 "Hg (Oct 20, 3:30 PM)
Average92 °F20%29.81 "Hg
* Reported Oct 13 4:00 AM — Oct 28 4:30 AM, Kassala, Weather by CustomWeather, © 2016

Note: Actual official high and low records may vary slightly from our data, if they occured in-between our weather recording intervals... More about our weather records


Kassala Weather History for the Previous 24 Hours

Scroll right to see more
Time TempWeatherWind HumidityBarometerVisibility
4:30 AM
Fri, Oct 28
81 °FClear.15 mph20%29.89 "Hg10 mi
4:00 AM81 °FClear.13 mph20%29.89 "Hg10 mi
3:30 AM82 °FClear.9 mph19%29.89 "Hg10 mi
3:00 AM82 °FClear.15 mph19%29.89 "Hg10 mi
2:30 AM82 °FClear.13 mph19%29.89 "Hg10 mi
2:00 AM82 °FClear.13 mph19%29.89 "Hg10 mi
1:30 AM86 °FClear.12 mph18%29.92 "Hg10 mi
1:00 AM86 °FClear.14 mph18%29.92 "Hg10 mi
12:30 AM86 °FClear.15 mph18%29.92 "Hg10 mi
12:00 AM86 °FClear.14 mph18%29.95 "Hg10 mi
11:30 PM
Thu, Oct 27
88 °FClear.10 mph19%29.95 "Hg10 mi
11:00 PM88 °FClear.12 mph19%29.95 "Hg10 mi
10:30 PM88 °FClear.9 mph19%29.95 "Hg10 mi
10:00 PM88 °FClear.15 mph19%29.92 "Hg10 mi
9:30 PM90 °FClear.10 mph17%29.92 "Hg10 mi
9:00 PM90 °FClear.15 mph17%29.92 "Hg10 mi
8:30 PM91 °FClear.12 mph16%29.89 "Hg10 mi
7:30 PM93 °FClear.12 mph20%29.89 "Hg10 mi
7:00 PM93 °FClear.10 mph20%29.86 "Hg10 mi
6:30 PM93 °FClear.13 mph20%29.86 "Hg10 mi
6:00 PM95 °FSunny.14 mph18%29.86 "Hg10 mi
5:30 PM95 °FSunny.9 mph18%29.83 "Hg10 mi
5:00 PM95 °FSunny.14 mph18%29.83 "Hg10 mi
4:30 PM95 °FExtremely hot.17 mph18%29.83 "Hg5 mi
4:00 PM95 °FExtremely hot.18 mph18%29.83 "Hg5 mi
3:30 PM95 °FSandstorm.16 mph18%29.83 "Hg2 mi
3:00 PM95 °FSandstorm.14 mph18%29.83 "Hg2 mi
2:30 PM95 °FSandstorm.17 mph18%29.83 "Hg2 mi
2:00 PM93 °FSandstorm.17 mph19%29.83 "Hg2 mi
1:30 PM93 °FSandstorm.14 mph19%29.83 "Hg2 mi
12:30 PM90 °FHot.14 mph21%29.86 "Hg4 mi
12:00 PM90 °FSunny.14 mph21%29.86 "Hg10 mi
11:30 AM88 °FSunny.13 mph22%29.89 "Hg10 mi
11:00 AM86 °FSunny.15 mph22%29.89 "Hg10 mi
10:30 AM84 °FSunny.14 mph25%29.89 "Hg10 mi
10:00 AM84 °FSunny.14 mph25%29.89 "Hg10 mi
9:00 AM82 °FSunny.15 mph28%29.89 "Hg10 mi
8:30 AM81 °FSunny.18 mph28%29.86 "Hg10 mi
8:00 AM81 °FPleasantly warm.18 mph28%29.86 "Hg4 mi
7:30 AM81 °FSunny.14 mph28%29.86 "Hg10 mi
7:00 AM81 °FSunny.9 mph28%29.83 "Hg10 mi
6:30 AM81 °FClear.10 mph28%29.83 "Hg10 mi
6:00 AM81 °FClear.16 mph28%29.83 "Hg10 mi
5:00 AM82 °FClear.15 mph21%29.83 "Hg10 mi
Weather by CustomWeather, © 2016

See weather overviewHow to use our weather pages